SUNNY01 VTBS-VTBT

Flight info

Callsign SUNNY01
Flight time 0h 26m
Altitude 1500
Route DCT BANGPAKONG DCT KOHSRICHANG
Aircraft C172/L-SFG/C

Departure

Time 2026-05-01 10:08
Airport Suvarnabhumi Airport (VTBS)

Arrival

Time 2026-05-01 10:34
Airport Bang Phra Airport (VTBT)
Time Latitude Longitude Altitude Speed Heading
2026-05-01 09:56 13.69227 100.75727 8 ft 0 kts 104°
2026-05-01 10:04 13.69224 100.75730 8 ft 3 kts 165°
2026-05-01 10:04 13.69222 100.75683 8 ft 11 kts 280°
2026-05-01 10:05 13.69184 100.75632 8 ft 10 kts 171°
2026-05-01 10:05 13.69149 100.75699 8 ft 13 kts 107°
2026-05-01 10:05 13.69124 100.75789 8 ft 13 kts 105°
2026-05-01 10:05 13.69104 100.75871 8 ft 11 kts 105°
2026-05-01 10:06 13.69085 100.75947 8 ft 10 kts 103°
2026-05-01 10:06 13.69065 100.76022 8 ft 14 kts 109°
2026-05-01 10:06 13.68959 100.76046 9 ft 31 kts 196°
2026-05-01 10:06 13.68612 100.75959 11 ft 69 kts 194°
2026-05-01 10:07 13.68118 100.75827 41 ft 80 kts 197°
2026-05-01 10:07 13.67539 100.75688 139 ft 89 kts 199°
2026-05-01 10:07 13.66987 100.75538 476 ft 62 kts 200°
2026-05-01 10:07 13.66498 100.75433 528 ft 83 kts 197°
2026-05-01 10:08 13.65570 100.75522 764 ft 90 kts 146°
2026-05-01 10:08 13.65067 100.75948 847 ft 100 kts 147°
2026-05-01 10:08 13.64498 100.76369 987 ft 92 kts 151°
2026-05-01 10:09 13.63972 100.76661 1159 ft 94 kts 154°
2026-05-01 10:09 13.63387 100.77000 1282 ft 97 kts 155°
2026-05-01 10:09 13.62810 100.77326 1512 ft 93 kts 154°
2026-05-01 10:09 13.62219 100.77637 1667 ft 98 kts 156°
2026-05-01 10:10 13.61591 100.77975 1709 ft 100 kts 151°
2026-05-01 10:10 13.61014 100.78352 1775 ft 101 kts 149°
2026-05-01 10:10 13.59763 100.79218 1720 ft 116 kts 135°
2026-05-01 10:11 13.59210 100.79814 1738 ft 113 kts 138°
2026-05-01 10:11 13.58635 100.80375 1609 ft 115 kts 141°
2026-05-01 10:11 13.58049 100.80912 1497 ft 110 kts 143°
2026-05-01 10:11 13.57475 100.81415 1377 ft 106 kts 145°
2026-05-01 10:12 13.56849 100.81591 1334 ft 98 kts 180°
2026-05-01 10:12 13.56119 100.81600 1167 ft 107 kts 179°
2026-05-01 10:12 13.54638 100.81607 988 ft 105 kts 178°
2026-05-01 10:13 13.53958 100.81778 1075 ft 106 kts 142°
2026-05-01 10:13 13.53400 100.82318 1026 ft 112 kts 142°
2026-05-01 10:13 13.52867 100.82861 1208 ft 106 kts 137°
2026-05-01 10:14 13.51797 100.83849 1486 ft 103 kts 142°
2026-05-01 10:14 13.51282 100.84334 1590 ft 97 kts 147°
2026-05-01 10:14 13.50943 100.84947 1522 ft 104 kts 117°
2026-05-01 10:14 13.50642 100.85640 1378 ft 104 kts 131°
2026-05-01 10:15 13.50114 100.86120 1252 ft 103 kts 148°
2026-05-01 10:15 13.49562 100.86605 1088 ft 108 kts 121°
2026-05-01 10:15 13.49502 100.87379 1006 ft 111 kts 86°
2026-05-01 10:15 13.49346 100.88139 1123 ft 113 kts 115°
2026-05-01 10:16 13.49205 100.88967 1312 ft 120 kts 97°
2026-05-01 10:16 13.49081 100.89849 1474 ft 125 kts 83°
2026-05-01 10:16 13.48828 100.91518 2398 ft 124 kts 86°
2026-05-01 10:17 13.48804 100.92393 2762 ft 120 kts 100°
2026-05-01 10:17 13.48247 100.93967 3341 ft 139 kts 141°
2026-05-01 10:17 13.47782 100.94696 3819 ft 131 kts 115°
2026-05-01 10:18 13.46615 100.95846 3290 ft 120 kts 162°
2026-05-01 10:18 13.45829 100.96224 3071 ft 122 kts 157°
2026-05-01 10:18 13.45068 100.96546 2881 ft 119 kts 160°
2026-05-01 10:19 13.44219 100.96801 2336 ft 130 kts 168°
2026-05-01 10:19 13.43368 100.97008 1792 ft 122 kts 169°
2026-05-01 10:19 13.42584 100.97221 1461 ft 110 kts 171°
2026-05-01 10:20 13.41061 100.97177 1439 ft 110 kts 188°
2026-05-01 10:20 13.40315 100.96942 1313 ft 111 kts 204°
2026-05-01 10:20 13.39669 100.96602 1337 ft 102 kts 207°
2026-05-01 10:20 13.39061 100.96277 1437 ft 96 kts 206°
2026-05-01 10:21 13.38424 100.95939 1338 ft 110 kts 206°
2026-05-01 10:21 13.37015 100.95141 755 ft 118 kts 214°
2026-05-01 10:21 13.36366 100.94669 591 ft 112 kts 217°
2026-05-01 10:22 13.35081 100.93769 451 ft 104 kts 213°
2026-05-01 10:22 13.33911 100.92991 629 ft 96 kts 213°
2026-05-01 10:23 13.33319 100.92573 511 ft 106 kts 210°
2026-05-01 10:23 13.31970 100.92088 609 ft 102 kts 188°
2026-05-01 10:23 13.31306 100.91995 700 ft 103 kts 180°
2026-05-01 10:24 13.29755 100.92320 761 ft 114 kts 167°
2026-05-01 10:24 13.28244 100.92727 801 ft 109 kts 168°
2026-05-01 10:25 13.26701 100.93098 623 ft 112 kts 169°
2026-05-01 10:25 13.25196 100.93347 572 ft 113 kts 176°
2026-05-01 10:26 13.24419 100.93408 469 ft 103 kts 182°
2026-05-01 10:26 13.23775 100.93599 449 ft 104 kts 145°
2026-05-01 10:26 13.22885 100.94810 304 ft 117 kts 102°
2026-05-01 10:27 13.23180 100.96041 616 ft 70 kts 168°
2026-05-01 10:27 13.22303 100.95761 553 ft 72 kts 227°
2026-05-01 10:28 13.22018 100.95822 274 ft 105 kts 60°
2026-05-01 10:28 13.23103 100.96680 461 ft 83 kts
2026-05-01 10:28 13.23620 100.96580 306 ft 76 kts 309°
2026-05-01 10:29 13.23352 100.95822 94 ft 56 kts 232°
2026-05-01 10:29 13.23067 100.95438 129 ft 76 kts 231°
2026-05-01 10:30 13.22815 100.96037 537 ft 80 kts 63°
2026-05-01 10:30 13.23588 100.96946 611 ft 99 kts 334°
2026-05-01 10:31 13.23195 100.95673 533 ft 54 kts 173°
2026-05-01 10:31 13.22645 100.96480 375 ft 70 kts 138°
2026-05-01 10:32 13.21822 100.96399 92 ft 50 kts 198°
2026-05-01 10:32 13.21492 100.96308 91 ft 61 kts 195°
2026-05-01 10:32 13.21272 100.96465 98 ft 102 kts 358°
2026-05-01 10:33 13.22604 100.96624 336 ft 87 kts 15°
2026-05-01 10:33 13.23560 100.96519 250 ft 74 kts 288°
2026-05-01 10:34 13.23523 100.96052 108 ft 61 kts 232°
2026-05-01 10:34 13.23317 100.95774 95 ft 38 kts 232°
2026-05-01 10:34 13.23215 100.95634 97 ft 16 kts 234°
2026-05-01 10:35 13.23310 100.95767 95 ft 33 kts 53°
2026-05-01 10:35 13.23393 100.95864 93 ft 6 kts 353°
2026-05-01 10:35 13.23409 100.95853 96 ft 1 kts 315°